This is the latest recevied weather packets stored in our database for station/object PA3BWK. If no packets are shown the sender has not sent any weather packets the latest 10 day(s).
| Time | Temp. | Humidity | Pressure | Rain* | Wind** | Luminosity | Snow |
|---|---|---|---|---|---|---|---|
| 1777992956 | 14.44° C | 61% | 1010.8 hPa | 0 mm | - | 359 W/m² | - |
| 1777992897 | 14.44° C | 62% | 1010.8 hPa | 0 mm | - | 325 W/m² | - |
| 1777992834 | 14.44° C | 62% | 1010.8 hPa | 0 mm | - | 313 W/m² | - |
| 1777992772 | 14.44° C | 61% | 1010.8 hPa | 0 mm | - | 303 W/m² | - |
| 1777992710 | 14.44° C | 61% | 1010.8 hPa | 0 mm | - | 306 W/m² | - |
| 1777992648 | 14.44° C | 62% | 1010.9 hPa | 0 mm | - | 271 W/m² | - |
| 1777992587 | 15° C | 61% | 1010.8 hPa | 0 mm | - | 271 W/m² | - |
| 1777992526 | 15° C | 61% | 1010.9 hPa | 0 mm | - | 271 W/m² | - |
| 1777992464 | 15° C | 62% | 1010.9 hPa | 0 mm | - | 285 W/m² | - |
| 1777992402 | 15° C | 62% | 1010.8 hPa | 0 mm | - | 311 W/m² | - |
| 1777992341 | 15° C | 62% | 1010.8 hPa | 0 mm | - | 306 W/m² | - |
| 1777992279 | 15° C | 62% | 1010.9 hPa | 0 mm | - | 303 W/m² | - |
| 1777992218 | 15° C | 62% | 1010.8 hPa | 0 mm | - | 280 W/m² | - |
| 1777992160 | 15° C | 62% | 1010.8 hPa | 0 mm | - | 253 W/m² | - |
| 1777992096 | 15° C | 63% | 1010.9 hPa | 0 mm | - | 250 W/m² | - |
| 1777992034 | 15° C | 63% | 1010.9 hPa | 0 mm | - | 260 W/m² | - |
| 1777991975 | 15° C | 63% | 1010.7 hPa | 0 mm | - | 285 W/m² | - |
| 1777991914 | 15° C | 62% | 1010.8 hPa | 0 mm | - | 433 W/m² | - |
| 1777991853 | 15° C | 62% | 1010.8 hPa | 0 mm | - | 257 W/m² | - |
| 1777991793 | 15° C | 62% | 1010.8 hPa | 0 mm | - | 389 W/m² | - |
| 1777991734 | 15° C | 61% | 1010.7 hPa | 0 mm | - | 236 W/m² | - |
| 1777991672 | 15° C | 61% | 1010.8 hPa | 0 mm | - | 223 W/m² | - |
| 1777991613 | 15° C | 61% | 1010.8 hPa | 0 mm | - | 232 W/m² | - |
| 1777991552 | 15° C | 61% | 1010.8 hPa | 0 mm | - | 201 W/m² | - |
| 1777991493 | 15° C | 61% | 1010.8 hPa | 0 mm | - | 232 W/m² | - |
* Rain latest hour (hover to see other rain measurements)
** Current wind speed in m/s (hover to see current wind gust speed)